5 day graph

You are here

Error message

  • Notice: Trying to access array offset on value of type int in DrupalRequestSanitizer::stripDangerousValues() (line 102 of /home/twolittl/public_html/cms/includes/request-sanitizer.inc).
  • Notice: Trying to access array offset on value of type int in DrupalRequestSanitizer::stripDangerousValues() (line 102 of /home/twolittl/public_html/cms/includes/request-sanitizer.inc).
  • Notice: Trying to access array offset on value of type int in DrupalRequestSanitizer::stripDangerousValues() (line 102 of /home/twolittl/public_html/cms/includes/request-sanitizer.inc).
  • Notice: Trying to access array offset on value of type int in DrupalRequestSanitizer::stripDangerousValues() (line 102 of /home/twolittl/public_html/cms/includes/request-sanitizer.inc).
  • Notice: Trying to access array offset on value of type int in DrupalRequestSanitizer::stripDangerousValues() (line 102 of /home/twolittl/public_html/cms/includes/request-sanitizer.inc).
  • Notice: Trying to access array offset on value of type int in DrupalRequestSanitizer::stripDangerousValues() (line 102 of /home/twolittl/public_html/cms/includes/request-sanitizer.inc).
  • Notice: Trying to access array offset on value of type int in DrupalRequestSanitizer::stripDangerousValues() (line 102 of /home/twolittl/public_html/cms/includes/request-sanitizer.inc).
  • Notice: Trying to access array offset on value of type int in DrupalRequestSanitizer::stripDangerousValues() (line 102 of /home/twolittl/public_html/cms/includes/request-sanitizer.inc).
  • Deprecated function: Function get_magic_quotes_gpc() is deprecated in phpMyEdit->get_cgi_var() (line 1773 of /home/twolittl/public_html/phpMyEdit.class.php).
  • Deprecated function: implode(): Passing glue string after array is deprecated. Swap the parameters in drupal_get_feeds() (line 394 of /home/twolittl/public_html/cms/includes/common.inc).

Hive Data

Page: 1 of 16645  Records: 998690

Row Date Time Hive Temp Hive Humidity Outside Temp Outside Humidity Bottom Board Temp Outside Wall Temp Electronics Temp Light Levels inHG Fan Heat Cover Notes
Clear Sorted By: Hive Temp ascending, inHG descending, Outside Wall Temp ascending, Row descending
View 696803 Nov 11 2015 2:59:26pm 25.3 45 10.9 59 52.7 54.5 68 931 29.56 0 1 0 NA
View 696804 Nov 11 2015 3:00:27pm 25.6 41 11 59 54.95 54.5 68 930 29.56 0 1 0 NA
View 367137 Feb 17 2015 2:03:49am 32 0 35.06 71 47.75 40.55 57.2 247 29.48 0 1 0 NA
View 367184 Feb 17 2015 2:51:07am 32 0 34.52 72 86 40.1 59 238 29.47 0 1 0 NA
View 367182 Feb 17 2015 2:49:06am 32 0 34.34 72 85.55 40.1 59 238 29.47 0 1 0 NA
View 367174 Feb 17 2015 2:41:03am 32 0 34.34 72 82.4 40.1 59 239 29.47 0 1 0 NA
View 367169 Feb 17 2015 2:36:01am 32 0 34.52 71 79.7 40.1 59 239 29.47 0 1 0 NA
View 367168 Feb 17 2015 2:35:01am 32 0 34.52 71 79.25 40.1 59 239 29.47 0 1 0 NA
View 367166 Feb 17 2015 2:33:00am 32 0 34.52 71 78.35 40.1 59 239 29.47 0 1 0 NA
View 367165 Feb 17 2015 2:32:00am 32 0 34.52 70 77.45 40.1 59 238 29.47 0 1 0 NA
View 367164 Feb 17 2015 2:30:59am 32 0 34.52 71 77 40.1 59 238 29.47 0 1 0 NA
View 367163 Feb 17 2015 2:29:59am 32 0 34.52 71 76.55 40.1 59 238 29.47 0 1 0 NA
View 367161 Feb 17 2015 2:27:58am 32 0 34.52 71 75.2 40.55 59 238 29.47 0 1 0 NA
View 367160 Feb 17 2015 2:26:58am 32 0 34.52 71 74.75 40.55 59 239 29.47 0 1 0 NA
View 367159 Feb 17 2015 2:25:57am 32 0 34.52 71 73.85 40.55 59 239 29.47 0 1 0 NA
View 367158 Feb 17 2015 2:24:57am 32 0 34.52 71 73.4 40.55 59 239 29.47 0 1 0 NA
View 367157 Feb 17 2015 2:23:57am 32 0 34.52 71 72.5 40.55 59 239 29.47 0 1 0 NA
View 367156 Feb 17 2015 2:22:56am 32 0 34.7 71 72.05 40.55 59 239 29.47 0 1 0 NA
View 367155 Feb 17 2015 2:21:56am 32 0 34.7 71 71.15 40.55 59 239 29.47 0 1 0 NA
View 367154 Feb 17 2015 2:20:55am 32 0 34.52 71 70.25 40.55 59 239 29.47 0 1 0 NA
View 367153 Feb 17 2015 2:19:55am 32 0 34.7 71 69.35 40.55 59 239 29.47 0 1 0 NA
View 367152 Feb 17 2015 2:18:55am 32 0 34.7 71 68.45 40.55 59 239 29.47 0 1 0 NA
View 367151 Feb 17 2015 2:17:54am 32 0 34.7 71 68 40.55 59 239 29.47 0 1 0 NA
View 367150 Feb 17 2015 2:16:54am 32 0 34.7 71 67.1 40.55 59 239 29.47 0 1 0 NA
View 367149 Feb 17 2015 2:15:54am 32 0 34.7 71 66.2 40.55 59 240 29.47 0 1 0 NA
View 367148 Feb 17 2015 2:14:53am 32 0 34.88 71 64.85 40.55 59 240 29.47 0 1 0 NA
View 367147 Feb 17 2015 2:13:53am 32 0 34.88 71 63.95 40.55 59 240 29.47 0 1 0 NA
View 367146 Feb 17 2015 2:12:53am 32 0 34.88 71 63.05 40.55 59 240 29.47 0 1 0 NA
View 367145 Feb 17 2015 2:11:52am 32 0 34.88 71 61.7 40.55 59 239 29.47 0 1 0 NA
View 367144 Feb 17 2015 2:10:52am 32 0 34.88 71 60.35 40.55 57.2 240 29.47 0 1 0 NA
View 367143 Feb 17 2015 2:09:51am 32 0 35.06 72 59 40.55 57.2 240 29.47 0 1 0 NA
View 367140 Feb 17 2015 2:06:50am 32 0 35.06 72 54.5 40.55 57.2 240 29.47 0 1 0 NA
View 367139 Feb 17 2015 2:05:50am 32 0 35.06 72 52.7 40.55 57.2 240 29.47 0 1 0 NA
View 367142 Feb 17 2015 2:08:51am 32 0 34.88 72 57.65 41 57.2 240 29.47 0 1 0 NA
View 367141 Feb 17 2015 2:07:51am 32 0 35.06 72 56.3 41 57.2 240 29.47 0 1 0 NA
View 367138 Feb 17 2015 2:04:50am 32 0 35.06 71 50.45 41 57.2 239 29.47 0 1 0 NA
View 367247 Feb 17 2015 3:55:16am 32 0 34.16 72 98.6 39.2 59 238 29.46 0 1 0 NA
View 367240 Feb 17 2015 3:48:13am 32 0 34.16 72 97.7 39.2 59 238 29.46 0 1 0 NA
View 367238 Feb 17 2015 3:46:13am 32 0 34.16 72 97.7 39.2 59 238 29.46 0 1 0 NA
View 367237 Feb 17 2015 3:45:12am 32 0 34.16 72 97.7 39.2 59 239 29.46 0 1 0 NA
View 367236 Feb 17 2015 3:44:12am 32 0 34.16 72 97.25 39.2 59 239 29.46 0 1 0 NA
View 367235 Feb 17 2015 3:43:12am 32 0 34.16 72 97.25 39.2 59 238 29.46 0 1 0 NA
View 367234 Feb 17 2015 3:42:11am 32 0 34.16 72 97.25 39.2 59 239 29.46 0 1 0 NA
View 367233 Feb 17 2015 3:41:11am 32 0 34.16 72 96.8 39.2 59 238 29.46 0 1 0 NA
View 367232 Feb 17 2015 3:40:10am 32 0 34.16 72 96.8 39.2 59 238 29.46 0 1 0 NA
View 367231 Feb 17 2015 3:39:10am 32 0 34.16 72 96.8 39.65 59 238 29.46 0 1 0 NA
View 367230 Feb 17 2015 3:38:10am 32 0 34.16 72 96.35 39.65 59 238 29.46 0 1 0 NA
View 367229 Feb 17 2015 3:37:09am 32 0 34.16 72 96.35 39.65 59 238 29.46 0 1 0 NA
View 367228 Feb 17 2015 3:36:09am 32 0 34.16 72 96.35 39.65 59 238 29.46 0 1 0 NA
View 367227 Feb 17 2015 3:35:09am 32 0 33.98 72 95.9 39.65 59 238 29.46 0 1 0 NA
View 367226 Feb 17 2015 3:34:08am 32 0 34.16 72 95.9 39.65 59 238 29.46 0 1 0 NA
View 367225 Feb 17 2015 3:33:08am 32 0 34.16 72 95.9 39.65 59 238 29.46 0 1 0 NA
View 367224 Feb 17 2015 3:32:07am 32 0 34.16 72 95.45 39.65 59 238 29.46 0 1 0 NA
View 367223 Feb 17 2015 3:31:07am 32 0 34.16 72 95.45 39.65 59 238 29.46 0 1 0 NA
View 367222 Feb 17 2015 3:30:07am 32 0 34.16 72 95.45 39.65 59 238 29.46 0 1 0 NA
View 367221 Feb 17 2015 3:29:06am 32 0 34.16 72 95 39.65 59 237 29.46 0 1 0 NA
View 367220 Feb 17 2015 3:28:06am 32 0 34.16 71 95 39.65 59 237 29.46 0 1 0 NA
View 367219 Feb 17 2015 3:27:06am 32 0 34.16 71 95 39.65 59 238 29.46 0 1 0 NA
View 367218 Feb 17 2015 3:26:05am 32 0 34.16 72 94.55 39.65 59 238 29.46 0 1 0 NA
View 367217 Feb 17 2015 3:25:05am 32 0 34.34 72 94.55 39.65 59 238 29.46 0 1 0 NA